Location: Erdmannsdorf
(48.4333°N, 14.0500°E)
Time: 17:03:39
(UTC+00:00)

Daily predictions for brighter satellites

Satellite Brightness Start Highest point End
(mag) Time Altitude Azimuth Time Altitude Azimuth Time Altitude Azimuth
STARLINK-1246 4.1 18:00:19 10° W 18:04:25 62° NNW 18:08:32 10° ENE
STARLINK-1271 4.1 18:02:00 10° W 18:04:59 38° N 18:07:56 10° ENE
STARLINK-1270 4.1 18:02:28 10° W 18:05:26 38° N 18:08:23 10° ENE
STARLINK-1154 4.1 18:02:55 10° W 18:05:52 38° N 18:08:50 10° ENE
STARLINK-1197 4.1 18:03:49 10° W 18:06:47 38° N 18:09:44 10° ENE
STARLINK-1189 4.1 18:04:18 10° W 18:07:15 38° N 18:10:12 10° ENE
STARLINK-1198 4.1 18:04:44 10° W 18:07:41 38° N 18:10:38 10° ENE
STARLINK-1188 4.1 18:05:11 10° W 18:08:08 37° N 18:11:05 10° ENE
Cosmos 2237 Rocket 3.7 18:03:05 10° WSW 18:08:22 40° NW 18:13:42 10° NNE
STARLINK-1097 3.9 18:04:14 10° WNW 18:08:22 66° SSW 18:12:28 10° SE
Cosmos 2297 4.4 18:03:08 10° NW 18:08:41 58° WSW 18:14:16 10° S
STARLINK-1235 4.2 18:05:54 10° WNW 18:08:51 36° N 18:11:49 10° ENE
STARLINK-1187 4.2 18:06:09 10° WNW 18:09:07 37° N 18:12:07 10° ENE
STARLINK-1224 4.2 18:05:22 10° W 18:09:28 59° NNW 18:13:34 10° ENE
STARLINK-1199 4.1 18:07:09 10° W 18:10:06 37° N 18:13:05 10° ENE
STARLINK-1201 4.2 18:07:19 10° W 18:10:25 39° N 18:13:31 10° ENE
STARLINK-1191 4.1 18:07:35 10° W 18:10:34 37° N 18:13:32 10° ENE
H-2A R/B 2.2 18:05:50 10° SSE 18:10:58 60° ENE 18:16:01 10° N
STARLINK-1210 4.1 18:08:02 10° W 18:11:00 37° N 18:13:59 10° ENE
IRS-1A Rocket 4.4 18:05:44 10° SSE 18:11:23 69° ENE 18:17:10 10° NNW
STARLINK-1221 4.2 18:08:29 10° W 18:11:27 37° N 18:14:26 10° ENE
STARLINK-1219 4.2 18:08:57 10° W 18:11:55 37° N 18:14:53 10° ENE
STARLINK-1222 4.2 18:09:25 10° W 18:12:22 37° N 18:15:21 10° ENE
STARLINK-1211 4.2 18:09:52 10° W 18:12:49 37° N 18:15:48 10° ENE
Cosmos 1726 3.5 18:10:24 10° SE 18:13:14 21° E 18:16:04 10° NE
STARLINK-1214 4.2 18:10:20 10° W 18:13:17 37° N 18:16:15 10° ENE
STARLINK-1099 4.0 18:09:14 10° WNW 18:13:20 62° SSW 18:17:24 10° SE
STARLINK-1245 4.2 18:10:48 10° WNW 18:13:44 36° N 18:16:40 10° ENE
STARLINK-1234 4.2 18:11:09 10° WNW 18:13:57 34° N 18:16:47 10° ENE
STARLINK-1238 4.2 18:11:13 10° WNW 18:14:11 37° N 18:17:09 10° ENE
STARLINK-1225 4.2 18:10:20 10° W 18:14:25 57° NNW 18:18:31 10° ENE
STARLINK-1228 4.2 18:11:55 10° WNW 18:14:35 32° N 18:17:15 10° ENE
STARLINK-1205 4.2 18:12:10 10° WNW 18:15:06 36° N 18:18:03 10° ENE
STARLINK-1204 4.2 18:12:36 10° WNW 18:15:33 36° N 18:18:29 10° ENE
USA 186 2.1 18:12:34 10° SSE 18:15:50 49° ENE 18:19:01 10° N
STARLINK-1104 4.1 18:14:14 10° WNW 18:18:18 58° SW 18:22:22 10° SE
STARLINK-1230 4.3 18:15:21 10° W 18:19:25 55° NNW 18:23:31 10° ENE
STARLINK-1144 4.2 18:19:12 10° WNW 18:23:15 54° SW 18:27:17 10° SE
STARLINK-1243 4.3 18:20:21 10° W 18:24:25 53° NNW 18:28:29 10° ENE
STARLINK-1209 4.2 18:21:54 10° WNW 18:24:36 32° N 18:27:19 10° ENE
ARGOS Delta rocket 4.2 18:21:45 10° S 18:26:59 84° WSW 18:32:28 10° NNW
Cosmos 292 Rocket 3.8 18:23:00 10° NNW 18:27:49 75° ENE 18:32:37 10° SSE
STARLINK-1103 4.3 18:24:12 10° WNW 18:28:13 50° SW 18:32:13 10° SE
Cosmos 2251 Rocket 3.7 18:23:38 10° S 18:28:47 50° ESE 18:34:00 10° NNE
STARLINK-1236 4.4 18:25:24 10° W 18:29:27 52° NNW 18:33:31 10° ENE
NOSS 3-4 (A) 4.4 18:24:32 10° NW 18:31:00 44° NE 18:37:30 12° ESE
NOSS 3-4 (C) 4.4 18:24:39 10° NW 18:31:07 44° NE 18:37:35 12° ESE
Cosmos 1953 2.5 18:27:55 10° SSE 18:31:43 47° E 18:35:34 10° NNE
Cosmos 1455 Rocket 4.5 18:27:42 10° SSW 18:31:50 43° WNW 18:36:03 10° N
MONITOR-E 3.6 18:29:50 10° SSE 18:32:28 76° ENE 18:35:07 10° N
STARLINK-1101 4.4 18:29:12 10° WNW 18:33:11 46° SW 18:37:07 10° SE
Cosmos 2315 Rocket 4.1 18:28:45 10° S 18:35:05 86° W 18:41:31 10° N
Resurs 01 Rocket 2.6 18:34:55 13° ESE 18:38:09 29° ENE 18:41:58 10° N
FREGAT/IRIS 2.5 18:35:45 10° S 18:38:28 74° W 18:41:12 10° NNW
Cosmos 1626 Rocket 4.1 18:34:14 10° NNW 18:38:34 61° W 18:42:51 10° S
Cosmos 2369 Rocket 2.2 18:33:27 10° NNW 18:39:12 85° ENE 18:44:52 10° SSE
STARLINK-1269 4.4 18:35:23 10° W 18:39:25 49° NNW 18:43:28 10° ENE
Aureole 3 3.9 18:35:28 10° S 18:39:54 72° E 18:45:38 10° NNE
Cosmos 1626 4.0 18:37:49 10° NNW 18:41:10 32° W 18:44:30 10° SSW
NOSS 3-3 (A) 4.0 18:35:37 10° SSW 18:41:18 54° ESE 18:47:41 10° NE
NOSS 3-3 (C) 4.0 18:35:44 10° SSW 18:41:24 54° ESE 18:47:47 10° NE
STARLINK-1200 4.5 18:40:23 10° W 18:44:24 48° N 18:48:26 10° ENE
Cosmos 1943 Rocket 2.5 18:39:41 10° NNW 18:45:12 69° WSW 18:50:43 10° SSE
IRIDIUM 104 4.3 18:40:08 10° N 18:45:23 72° E 18:50:35 10° S
Cosmos 1437 2.8 18:42:29 10° N 18:45:27 48° ENE 18:47:33 17° SSE
ADEOS Rocket 4.4 18:39:27 10° N 18:45:44 44° WNW 18:51:23 10° SW
SL-8 R/B 3.9 18:41:36 10° W 18:46:20 61° SSW 18:49:51 17° SE
CZ-2C R/B 4.0 18:43:28 10° NNE 18:48:05 49° E 18:52:35 10° S
Cosmos 1602 Rocket 4.1 18:43:56 10° NNW 18:48:21 62° W 18:52:42 10° S
STARLINK-1192 4.5 18:45:24 10° W 18:49:25 47° N 18:53:26 10° ENE
Cosmos 1470 3.8 18:48:32 10° SSW 18:52:17 48° WNW 18:56:07 10° N
Cosmos 2263 4.1 18:48:53 10° NNW 18:54:32 83° ENE 18:59:31 13° SSE
IRIDIUM 114 4.3 18:49:17 10° N 18:54:33 85° E 18:59:46 10° S
Cosmos 1908 4.0 18:52:23 16° SE 18:54:48 31° E 18:58:15 10° NNE
Ariane Rocket 3.9 18:51:11 10° S 18:56:05 50° W 19:01:02 10° NNW
Abrixas rocket 1.8 18:56:59 10° WSW 18:59:57 80° S 19:01:18 29° E
Aureole 2 Rocket 3.4 18:56:36 10° NW 18:59:58 44° WSW 19:03:15 10° S
STARLINK-67 3.8 18:58:29 10° WNW 19:00:50 30° N 19:01:57 21° NE
Cosmos 2074 Rocket 4.0 18:54:54 10° N 19:01:13 82° E 19:07:32 10° S
Cosmos 1726 Rocket 4.0 18:57:26 10° SSE 19:01:33 41° E 19:05:44 10° NNE
IRIDIUM 103 4.4 18:58:29 10° N 19:03:43 81° W 19:08:56 10° S
ATLAS 2AS CENTAUR R/B 3.0 18:56:08 10° NW 19:03:48 63° NE 19:08:47 21° ESE
Cosmos 1943 3.2 18:58:48 10° S 19:04:22 61° ESE 19:09:58 10° NNE
ISS -2.3 19:02:37 10° W 19:05:35 29° SW 19:07:16 19° S
USA 234 3.6 18:59:56 10° ENE 19:06:07 43° SE 19:12:15 10° SSW
Cosmos 1825 Rocket 3.5 19:01:41 10° N 19:06:08 81° E 19:10:01 13° SSE
SL-08 RB Rocket 4.0 19:03:51 10° S 19:08:22 69° WSW 19:12:58 10° NNW
Spot 2 Rocket 4.3 19:06:11 22° ESE 19:08:35 34° ENE 19:13:10 10° N
Cosmos 1140 Rocket 4.4 19:11:31 25° ESE 19:12:09 25° E 19:16:20 10° NE
SPOT 3 Rocket 3.6 19:07:14 10° SSE 19:12:27 82° WSW 19:17:42 10° NNW
Meteor 2-17 Rocket 4.5 19:06:27 10° N 19:12:34 63° ENE 19:17:21 17° SSE
Cosmos 1610 Rocket 4.4 19:10:27 10° N 19:16:41 72° E 19:21:46 16° SSE
Cosmos 1758 Rocket 3.9 19:13:34 10° NNW 19:17:53 65° W 19:22:09 10° S
MetOp-B 4.5 19:15:54 25° SE 19:18:39 48° ENE 19:23:48 10° N
SJ-6B 4.1 19:15:04 10° S 19:18:58 42° W 19:22:55 10° NNW
MOS 1 Rocket 3.5 19:17:22 10° NNE 19:22:41 69° E 19:28:06 10° S
CZ-4C R/B 4.4 19:20:12 10° NW 19:25:07 23° N 19:30:42 10° ENE
Cosmos 1953 Rocket 3.5 19:20:38 10° N 19:25:07 87° E 19:27:53 23° S
SL-16 R/B 4.2 19:21:13 10° WSW 19:26:07 29° NW 19:31:03 10° NNE
Terra 3.5 19:28:43 17° ENE 19:29:19 17° ENE 19:32:22 10° NNE
Cosmos 1606 Rocket 3.6 19:25:13 10° S 19:29:38 84° W 19:34:08 10° N
Cosmos 1818 3.5 19:24:16 10° SSW 19:29:39 68° ESE 19:35:04 10° NE
Cosmos 921 Rocket 3.4 19:28:13 10° N 19:32:12 41° ENE 19:32:50 38° E
BREEZE M DEB (TANK) 3.6 19:24:40 10° SW 19:33:32 47° SSE 19:34:31 40° ESE
Cosmos 614 Rocket 3.9 19:28:26 10° S 19:33:34 60° ESE 19:38:42 10° NNE
STARLINK-1233 4.0 19:31:01 10° WNW 19:33:58 37° N 19:34:36 33° NE
STARLINK-1212 4.0 19:31:28 10° WNW 19:34:26 36° N 19:35:01 33° NE
SL-24 R/B 4.5 19:30:07 10° N 19:34:28 60° WNW 19:38:17 10° SSW
Cosmos 407 Rocket 3.5 19:30:03 12° S 19:34:37 51° ESE 19:39:36 10° NNE
CZ-2C R/B 2.4 19:29:29 10° NNE 19:34:42 80° ESE 19:39:53 10° SSW
STARLINK-1105 4.0 19:31:56 10° WNW 19:34:54 37° N 19:35:29 33° NE
STARLINK-1206 4.0 19:32:25 10° WNW 19:35:21 36° N 19:35:53 33° NE
Cosmos 2228 3.1 19:31:26 10° SSW 19:35:42 77° W 19:40:04 10° N
STARLINK-1247 4.0 19:32:51 10° WNW 19:35:48 37° N 19:36:19 34° NE
STARLINK-1227 4.0 19:33:15 10° WNW 19:36:13 37° N 19:36:46 34° NE
STARLINK-1218 3.9 19:33:46 10° WNW 19:36:43 37° N 19:37:11 34° NNE
Cosmos 1656 Rocket 3.8 19:31:21 10° NNW 19:37:01 73° WSW 19:40:14 26° SSE
STARLINK-1226 3.9 19:34:11 10° WNW 19:37:08 37° N 19:37:37 34° NNE
STARLINK-1254 3.9 19:34:37 10° WNW 19:37:35 37° N 19:38:04 35° NNE
SPOT 1/Viking Rocket 4.1 19:36:24 34° E 19:37:46 40° ENE 19:42:39 10° N
STARLINK-1215 3.9 19:35:07 10° WNW 19:38:04 37° N 19:38:29 35° NNE
STARLINK-1231 3.9 19:35:35 10° WNW 19:38:32 37° N 19:38:56 35° NNE
STARLINK-1232 3.9 19:36:28 10° WNW 19:39:26 37° N 19:39:47 36° NNE
STARLINK-1217 3.9 19:36:55 10° WNW 19:39:53 37° N 19:40:14 36° NNE
IGS 5A 4.0 19:39:45 38° ENE 19:39:59 39° ENE 19:43:52 10° N
STARLINK-1208 3.9 19:37:20 10° WNW 19:40:19 38° N 19:40:40 36° NNE
STARLINK-1229 3.9 19:37:48 10° WNW 19:40:46 37° N 19:41:04 36° NNE
STARLINK-1271 3.9 19:38:16 10° WNW 19:41:14 38° N 19:41:32 37° NNE
STARLINK-1270 3.9 19:38:44 10° WNW 19:41:41 38° N 19:41:57 37° NNE
STARLINK-1154 3.9 19:39:10 10° WNW 19:42:08 38° N 19:42:23 37° NNE
SAR-Lupe-2 3.7 19:39:02 10° NNE 19:42:09 53° ENE 19:42:09 53° ENE
Cosmos 1295 Rocket 4.4 19:36:17 10° N 19:42:36 82° E 19:46:25 26° SSE
STARLINK-1197 3.9 19:40:04 10° WNW 19:43:02 38° N 19:43:15 37° NNE
STARLINK-1189 3.9 19:40:33 10° WNW 19:43:30 38° N 19:43:42 38° NNE
STARLINK-1198 3.9 19:40:59 10° WNW 19:43:56 38° N 19:44:07 38° NNE
STARLINK-1188 3.9 19:41:26 10° WNW 19:44:24 38° N 19:44:33 38° NNE
STARLINK-1235 3.8 19:42:05 10° WNW 19:45:07 42° NNE 19:45:11 42° NNE
STARLINK-1187 3.8 19:42:24 10° WNW 19:45:25 40° NNE 19:45:33 40° NNE
Cosmos 2341 Rocket 4.0 19:39:22 10° N 19:45:44 66° ENE 19:48:37 34° SSE
BREEZE-M DEB (TANK) 3.3 19:40:48 10° WNW 19:45:51 55° SSW 19:45:58 54° SSW
SL-4 R/B 3.5 19:42:39 10° SW 19:43:45 18° SSW 19:43:45 18° SSW
COSMOS 2455 3.1 19:40:13 10° NNW 19:46:10 56° NE 19:48:18 37° ESE
STARLINK-1199 3.9 19:43:22 10° WNW 19:46:22 39° N 19:46:28 39° NNE
STARLINK-1191 3.9 19:43:50 10° WNW 19:46:49 39° N 19:46:54 39° NNE
STARLINK-1201 3.9 19:43:59 10° WNW 19:47:07 40° N 19:47:21 39° NNE
STARLINK-1210 3.9 19:44:16 10° WNW 19:47:16 39° N 19:47:20 39° NNE
STARLINK-1221 3.9 19:44:43 10° WNW 19:47:43 39° NNE 19:47:46 39° NNE
Cosmos 1603 4.4 19:42:33 10° SW 19:48:05 55° WNW 19:53:37 10° NNE
STARLINK-1219 3.9 19:45:10 10° WNW 19:48:10 39° N 19:48:13 39° NNE
Cosmos 1726 4.0 19:44:52 10° SW 19:48:15 32° WNW 19:51:38 10° N
Cosmos 1340 Rocket 2.7 19:47:46 57° SSE 19:48:30 75° E 19:52:34 10° NNE
STARLINK-1222 3.9 19:45:37 10° WNW 19:48:38 40° NNE 19:48:38 40° NNE
ERS-1 Rocket 3.6 19:47:59 36° E 19:48:42 38° ENE 19:53:20 10° N
Cosmos 1980 Rocket 4.5 19:47:07 10° N 19:49:04 12° NNE 19:51:01 10° NE
STARLINK-1211 3.9 19:46:05 10° WNW 19:49:04 40° N 19:49:04 40° N
STARLINK-1214 3.9 19:46:32 10° WNW 19:49:31 40° N 19:49:31 40° N
STARLINK-1234 3.8 19:46:59 10° WNW 19:49:39 42° N 19:49:39 42° N
STARLINK-1228 3.9 19:47:08 10° WNW 19:49:30 39° NNW 19:49:30 39° NNW
STARLINK-1245 3.9 19:47:01 10° WNW 19:49:55 39° N 19:49:55 39° N
STARLINK-1238 3.9 19:47:26 10° WNW 19:50:23 40° N 19:50:23 40° N
H-2A R/B 4.4 19:46:49 10° SW 19:50:46 21° W 19:54:40 10° NW
STARLINK-1205 3.9 19:48:22 10° WNW 19:51:14 40° N 19:51:14 40° N
STARLINK-1204 3.9 19:48:49 10° WNW 19:51:39 40° N 19:51:39 40° N
STARLINK-1225 4.5 19:50:29 10° WNW 19:54:28 44° N 19:55:41 34° NE
Cosmos 1892 4.5 19:54:44 10° NNE 19:56:50 22° NE 19:56:50 22° NE
STARLINK-1230 4.5 19:55:30 10° WNW 19:59:29 45° N 20:00:28 37° NE
STARLINK-1209 4.3 19:57:21 10° WNW 19:59:26 36° NNW 19:59:26 36° NNW
STARLINK-1243 4.4 20:00:28 10° WNW 20:04:28 45° N 20:05:14 40° NE
ATLAS CENTAUR R/B 3.9 20:03:31 10° N 20:04:45 11° NNE 20:05:57 10° NE
Cosmos 2218 Rocket 4.0 20:00:22 10° N 20:06:29 59° ENE 20:07:51 48° ESE
Cosmos 1461 2.9 20:03:06 10° NW 20:07:38 85° NE 20:07:55 78° ESE
ERBS 4.2 20:05:52 10° NW 20:08:37 25° NNE 20:08:37 25° NNE
STARLINK-1236 4.3 20:05:31 10° WNW 20:09:32 46° N 20:10:03 43° NNE
Cosmos 1076 Rocket 4.2 20:07:48 10° N 20:11:09 42° NE 20:11:09 42° NE
Cosmos 1023 Rocket 4.3 20:11:23 45° SSW 20:13:01 82° ESE 20:18:11 10° NNE
Resurs 01 Rocket 3.0 20:12:29 22° SW 20:14:33 34° W 20:18:35 10° NNW
ATLAS 5 CENTAUR R/B 4.1 20:20:51 11° NE 20:20:51 11° NE 20:21:07 10° NE
In-Cosmos 22 Rocket 4.2 20:13:35 10° N 20:19:25 69° ENE 20:20:12 61° ESE
STARLINK-1269 4.3 20:15:28 10° WNW 20:19:30 48° N 20:19:36 48° NNE
USA 245 4.4 20:18:18 46° S 20:19:55 72° WSW 20:26:08 10° NNW
Cosmos 2181 Rocket 3.9 20:18:41 50° SSE 20:20:24 75° E 20:26:36 10° NNE
Cosmos 2058 Rocket 3.9 20:18:19 26° SW 20:20:36 50° WNW 20:25:01 10° N
NOSS 3-4 (A) 4.1 20:15:25 10° NW 20:22:18 62° SW 20:24:57 40° S
NOSS 3-4 (C) 4.1 20:15:31 10° NW 20:22:25 62° SW 20:25:02 41° S
Cosmos 1300 3.6 20:23:46 44° N 20:23:46 44° N 20:26:29 10° N
STARLINK-1200 4.3 20:20:26 10° WNW 20:24:22 49° N 20:24:22 49° N
Landsat 7 3.8 20:24:18 70° SW 20:24:41 75° WSW 20:29:27 10° NNW
Cosmos 1763 Rocket 4.1 20:24:02 10° NNW 20:28:47 42° NE 20:28:47 42° NE
STARLINK-1192 4.4 20:25:26 10° WNW 20:29:09 49° N 20:29:09 49° N
SL-8 Rocket 4.0 20:24:57 10° N 20:31:17 81° W 20:32:55 53° S
STARLINK-1244 4.5 20:30:26 10° WNW 20:33:55 47° NNW 20:33:55 47° NNW
Cosmos 864 Rocket 4.3 20:29:28 10° N 20:35:46 85° E 20:36:39 67° SSE
CARTOSAT-1 4.0 20:36:52 57° N 20:36:52 57° N 20:40:21 10° NNW
SPOT 5 3.1 20:39:20 57° N 20:39:20 57° N 20:42:48 10° NNW
Cosmos 2058 3.8 20:35:00 10° N 20:37:54 45° N 20:37:54 45° N
SL-24 R/B - RUBIN 2 4.3 20:33:34 10° SW 20:39:13 84° NW 20:45:39 10° NE
Cosmos 2366 rocket 3.9 20:35:27 10° N 20:41:38 84° W 20:42:31 67° S
USA 234 3.3 20:42:53 10° NE 20:49:25 75° NNW 20:55:56 10° WSW
Cosmos 1140 Rocket 4.2 20:51:22 30° WSW 20:53:38 50° WNW 20:58:42 10° NNE
ATLAS 2AS CENTAUR R/B 3.6 20:47:40 10° NW 20:54:27 38° WSW 20:56:14 33° SW
Iridium 4 Rocket 4.1 20:53:30 10° NNW 20:56:43 42° NW 20:56:43 42° NW
Meteor 2-12 Rocket 4.3 20:53:30 10° NNW 20:59:38 79° W 20:59:54 77° SW
RESURS DK-1 4.3 20:57:26 10° NNW 20:59:42 25° N 20:59:42 25° N
BREEZE M DEB (TANK) 3.6 21:02:08 75° SSE 21:02:12 75° SSE 21:17:06 10° ENE
Cosmos 841 Rocket 4.4 20:57:27 10° NNW 21:01:39 42° NNE 21:01:39 42° NNE
Terra 2.5 21:07:36 52° NW 21:07:36 52° NW 21:11:17 10° NNW
Cosmos 1697 Rocket 3.4 21:02:00 10° NNW 21:06:58 43° NE 21:06:58 43° NE
Cosmos 468 Rocket 4.4 21:05:22 10° NNW 21:09:34 58° NW 21:09:34 58° NW
CZ-4C R/B 3.7 21:09:03 10° NW 21:15:29 42° NE 21:17:32 35° ENE
Mayak 1.1 21:12:19 10° NNE 21:13:22 17° NNE 21:13:22 17° NNE
SL-16 R/B 4.4 21:13:51 10° N 21:17:05 15° NE 21:18:41 14° NE
Meteor 2-10 Rocket 4.5 21:20:36 41° NNE 21:20:36 41° NNE 21:24:05 10° NNE
Cosmos 1821 Rocket 4.0 21:18:01 10° N 21:23:55 77° N 21:23:55 77° N
ERS-1 Rocket 4.4 21:27:58 31° W 21:27:58 31° W 21:32:02 10° NNW
Cosmos 2322 Rocket 4.4 21:25:14 10° N 21:28:30 15° NE 21:30:00 14° NE
COSMOS 2455 4.1 21:26:36 10° NW 21:31:27 32° WSW 21:31:27 32° WSW
Cosmos 1980 Rocket 3.2 21:29:27 10° NNW 21:33:52 38° NNE 21:33:52 38° NNE
Cosmos 1934 Rocket 4.3 21:30:22 10° N 21:35:38 58° NNE 21:35:38 58° NNE
ATLAS CENTAUR R/B 4.0 21:41:10 10° NNW 21:42:19 17° NNW 21:42:19 17° NNW
Cosmos 2082 Rocket 4.1 22:02:45 21° NE 22:02:45 21° NE 22:04:37 10° NE
ATLAS 5 CENTAUR R/B 3.6 22:02:16 27° NNW 22:02:16 27° NNW 22:05:48 10° NNE
COSMOS 2406 4.3 22:09:22 41° N 22:09:22 41° N 22:13:08 10° NNE
Cosmos 1833 Rocket 4.1 22:21:36 33° NNE 22:21:36 33° NNE 22:24:38 10° NNE
USA 234 4.2 22:25:52 10° ENE 22:31:59 45° N 22:38:07 10° WNW
Mayak 1.7 22:49:00 10° NNW 22:49:57 13° NW 22:49:57 13° NW
SL-16 R/B 3.4 22:56:53 10° NNW 23:00:33 38° N 23:00:33 38° N
CZ-4C R/B 3.4 22:57:28 10° NW 23:02:42 53° WNW 23:02:42 53° WNW
Cosmos 2360 Rocket 3.6 23:06:25 10° NNW 23:10:45 32° NNE 23:10:45 32° NNE
Cosmos 2322 Rocket 3.5 23:08:14 10° NNW 23:11:48 37° N 23:11:48 37° N
Cosmos 1980 Rocket 4.1 23:13:34 10° NW 23:15:38 21° NW 23:15:38 21° NW
Resurs 1-4 Rocket 4.3 23:33:42 10° NE 23:36:00 17° ENE 23:36:00 17° ENE
Cosmos 2344 4.5 23:29:20 10° NW 23:38:51 58° WSW 23:38:51 58° WSW
Cosmos 2082 Rocket 3.6 23:44:35 33° NNW 23:44:35 33° NNW 23:48:42 10° NNE
CZ-2D R/B 4.0 23:45:28 10° NE 23:48:41 23° ENE 23:48:41 23° ENE
